sail-world.com
 
 
News Home Cruising Photo Gallery Video Gallery

 

Sail-World.com : Joyon slows - still 3360 miles ahead of MacArthur

Joyon slows - still 3360 miles ahead of MacArthur

'IDEC, photo by JM Liot'    .
Francis Joyon's trimaran IDEC is this morning sailing abeam of Uruguay, well out in the Atlantic.

Yesterday the Frenchman sailed for much of the day in very light winds of less than 10 knots but last night his speed picked up again.

He is still 3360 nautical miles ahead of Dame Ellen MacArthur during her record breaking round the world passage and has only around 5400 miles to go.
Joyon versus MacArthur -    


As he approaches the anticyclone ahead his speeds have continued to drop, as the data below shows.

Date Latitude Longitude Cap Distance au but Avance VMG Vitesses Distance sur 24h
Instant. sur 4h sur 24h
03/01/2008 16:46:00 UTC 36°45,56 S 030°02,96 W 294° 5 295 nm 3 214,91 nm 2,4 Nds 9,1 Nds 7,1 Nds 9,7 Nds 231,7 nm
03/01/2008 15:46:00 UTC 36°50,04 S 029°53,08 W 295° 5 298 nm 3 230,44 nm 2,7 Nds 9,7 Nds 5,4 Nds 10,2 Nds 244,9 nm
03/01/2008 14:46:00 UTC 36°54,88 S 029°42,56 W 293° 5 300 nm 3 245,85 nm 1,9 Nds 7,5 Nds 3,4 Nds 10,4 Nds 250,4 nm
03/01/2008 13:46:00 UTC 36°58,44 S 029°34,28 W 333° 5 302 nm 3 261,71 nm 2,1 Nds 2,6 Nds 2,5 Nds 10,7 Nds 255,8 nm
03/01/2008 12:46:00 UTC 37°00,84 S 029°33,08 W 343° 5 304 nm 3 275,75 nm 2,7 Nds 3,0 Nds 2,3 Nds 11,0 Nds 264,2 nm
03/01/2008 11:46:00 UTC 37°03,76 S 029°32,20 W 5 307 nm 3 289,20 nm 2,2 Nds 2,2 Nds 2,4 Nds 11,4 Nds 272,6 nm
03/01/2008 10:46:00 UTC 37°05,96 S 029°32,28 W 5 309 nm 3 303,16 nm 2,2 Nds 2,2 Nds 2,7 Nds 11,9 Nds 285,4 nm
03/01/2008 09:46:00 UTC 37°08,20 S 029°32,36 W 5 311 nm 3 317,31 nm 2,0 Nds 2,0 Nds 3,0 Nds 12,7 Nds 304,0 nm
03/01/2008 08:46:00 UTC 37°10,20 S 029°32,64 W 5 313 nm 3 332,12 nm 3,2 Nds 3,3 Nds 4,0 Nds 13,5 Nds 323,9 nm
03/01/2008 07:46:00 UTC 37°13,48 S 029°32,80 W 339° 5 317 nm 3 345,68 nm 3,0 Nds 3,5 Nds 5,4 Nds 14,0 Nds 336,7 nm
03/01/2008 05:40:00 UTC 37°20,56 S 029°30,12 W 313° 5 323 nm 3 374,41 nm 3,9 Nds 6,6 Nds 9,6 Nds 15,1 Nds 362,0 nm
03/01/2008 04:40:00 UTC 37°25,60 S 029°24,72 W 324° 5 327 nm 3 386,97 nm 6,2 Nds 8,6 Nds 11,3 Nds 15,6 Nds 374,8 nm
03/01/2008 03:38:00 UTC 37°33,28 S 029°19,04 W 324° 5 333 nm 3 396,94 nm 8,5 Nds 11,6 Nds 13,5 Nds 16,1 Nds 386,4 nm
03/01/2008 02:38:00 UTC 37°43,36 S 029°11,84 W 338° 5 342 nm 3 404,37 nm 10,3 Nds 11,9 Nds 14,9 Nds 16,5 Nds 396,9 nm
03/01/2008 01:38:00 UTC 37°54,76 S 029°07,32 W 352° 5 352 nm 3 410,25 nm 13,1 Nds 13,9 Nds 16,0 Nds 16,9 Nds 406,3 nm
03/01/2008 00:38:00 UTC 38°08,60 S 029°05,28 W 354° 5 365 nm 3 413,26 nm 16,4 Nds 17,3 Nds 17,0 Nds 17,2 Nds 412,8 nm
02/01/2008 23:36:00 UTC 38°26,36 S 029°03,32 W 347° 5 382 nm 3 412,93 nm 15,2 Nds 16,6 Nds 17,2 Nds 17,4 Nds 418,3 nm
02/01/2008 22:36:00 UTC 38°42,64 S 028°59,44 W 352° 5 398 nm 3 413,79 nm 15,5 Nds 16,4 Nds 18,0 Nds 17,8 Nds 426,5 nm
02/01/2008 21:36:00 UTC 38°58,92 S 028°57,16 W 360° 5 413 nm 3 414,34 nm 17,5 Nds 18,0 Nds 19,2 Nds 18,2 Nds 436,1 nm
02/01/2008 20:36:00 UTC 39°16,88 S 028°57,08 W 359° 5 431 nm 3 413,02 nm 17,6 Nds 18,2 Nds 20,1 Nds 18,5 Nds 445,1 nm
02/01/2008 19:34:00 UTC 39°35,64 S 028°56,60 W 5 449 nm 3 411,59 nm 19,2 Nds 19,5 Nds 20,7 Nds 19,0 Nds 455,8 nm
02/01/2008 18:34:00 UTC 39°55,16 S 028°57,36 W 14° 5 468 nm 3 408,61 nm 21,6 Nds 21,6 Nds 19,5 Nds 19,4 Nds 464,6 nm
02/01/2008 17:34:00 UTC 40°16,40 S 029°02,72 W 17° 5 490 nm 3 403,17 nm 21,7 Nds 21,7 Nds 18,8 Nds 19,6 Nds 471,0 nm
02/01/2008 16:34:00 UTC 40°37,52 S 029°09,28 W 21° 5 511 nm 3 397,84 nm 20,4 Nds 20,4 Nds 19,3 Nds 19,9 Nds 476,9 nm
02/01/2008 15:34:00 UTC 40°57,12 S 029°16,76 W 63° 5 532 nm 3 394,93 nm 13,1 Nds 17,8 Nds 20,7 Nds 20,1 Nds 483,3 nm
02/01/2008 14:32:00 UTC 41°07,48 S 029°36,96 W 75° 5 545 nm 3 398,89 nm 12,6 Nds 23,0 Nds 20,0 Nds 20,3 Nds 487,9 nm
02/01/2008 13:32:00 UTC 41°15,32 S 030°05,72 W 72° 5 558 nm 3 401,89 nm 12,9 Nds 21,6 Nds 19,0 Nds 20,3 Nds 487,9 nm
02/01/2008 12:32:00 UTC 41°23,80 S 030°32,16 W 75° 5 571 nm 3 404,52 nm 11,7 Nds 20,6 Nds 19,0 Nds 20,4 Nds 489,2 nm
02/01/2008 11:32:00 UTC 41°30,96 S 030°58,00 W 44° 5 582 nm 3 408,10 nm 15,9 Nds 17,1 Nds 19,1 Nds 20,5 Nds 490,8 nm
02/01/2008 10:30:00 UTC 41°45,32 S 031°11,72 W 27° 5 599 nm 3 407,33 nm 22,4 Nds 22,5 Nds 19,2 Nds 20,6 Nds 495,4 nm
02/01/2008 09:30:00 UTC 42°06,32 S 031°22,64 W 20° 5 621 nm 3 401,19 nm 21,7 Nds 21,7 Nds 19,0 Nds 20,7 Nds 496,6 nm
02/01/2008 08:30:00 UTC 42°27,24 S 031°30,44 W 65° 5 643 nm 3 397,47 nm 13,4 Nds 18,5 Nds 20,3 Nds 20,8 Nds 500,0 nm
02/01/2008 07:30:00 UTC 42°36,96 S 031°51,76 W 74° 5 656 nm 3 401,44 nm 12,4 Nds 20,8 Nds 20,9 Nds 20,7 Nds 497,8 nm
02/01/2008 06:28:00 UTC 42°44,80 S 032°19,00 W 68° 5 669 nm 3 406,39 nm 14,4 Nds 20,6 Nds 20,1 Nds 20,5 Nds 491,1 nm
02/01/2008 05:28:00 UTC 42°54,68 S 032°43,60 W 76° 5 684 nm 3 411,24 nm 12,4 Nds 21,7 Nds 19,9 Nds 20,3 Nds 486,1 nm
02/01/2008 04:28:00 UTC 43°01,60 S 033°11,76 W 75° 5 696 nm 3 419,40 nm 12,3 Nds 20,5 Nds 19,3 Nds 20,0 Nds 479,3 nm
02/01/2008 03:28:00 UTC 43°08,76 S 033°38,00 W 66° 5 708 nm 3 427,83 nm 13,5 Nds 18,1 Nds 18,9 Nds 19,7 Nds 472,9 nm
02/01/2008 02:26:00 UTC 43°18,52 S 033°59,84 W 71° 5 722 nm 3 435,24 nm 13,3 Nds 19,7 Nds 19,3 Nds 19,5 Nds 469,0 nm
02/01/2008 01:26:00 UTC 43°26,88 S 034°24,32 W 73° 5 736 nm 3 442,42 nm 12,3 Nds 19,1 Nds 19,6 Nds 19,4 Nds 464,8 nm
02/01/2008 00:26:00 UTC 43°34,16 S 034°48,64 W 67° 5 748 nm 3 450,64 nm 14,4 Nds 19,1 Nds 20,4 Nds 19,3 Nds 462,7 nm
01/01/2008 23:26:00 UTC 43°43,92 S 035°11,32 W 69° 5 762 nm 3 456,30 nm 14,3 Nds 19,6 Nds 21,3 Nds 19,2 Nds 461,6 nm
01/01/2008 22:24:00 UTC 43°53,52 S 035°36,00 W 65° 5 777 nm 3 462,18 nm 16,6 Nds 20,9 Nds 22,0 Nds 19,2 Nds 460,5 nm
01/01/2008 21:24:00 UTC 44°05,08 S 036°00,28 W 62° 5 794 nm 3 466,05 nm 18,2 Nds 22,2 Nds 22,6 Nds 19,0 Nds 456,7 nm
01/01/2008 20:24:00 UTC 44°18,16 S 036°25,24 W 62° 5 812 nm 3 468,30 nm 18,9 Nds 22,7 Nds 22,7 Nds 18,9 Nds 452,5 nm
01/01/2008 19:24:00 UTC 44°31,72 S 036°50,64 W 65° 5 831 nm 3 469,29 nm 17,9 Nds 22,3 Nds 22,7 Nds 18,7 Nds 448,3 nm
01/01/2008 18:22:00 UTC 44°44,44 S 037°17,56 W 65° 5 849 nm 3 470,48 nm 18,7 Nds 23,4 Nds 22,8 Nds 18,5 Nds 445,0 nm
01/01/2008 17:22:00 UTC 44°57,20 S 037°45,20 W 69° 5 868 nm 3 469,96 nm 17,3 Nds 22,8 Nds 22,4 Nds 18,1 Nds 435,1 nm
01/01/2008 16:22:00 UTC 45°08,24 S 038°13,36 W 65° 5 885 nm 3 470,29 nm 18,5 Nds 22,6 Nds 22,3 Nds 17,6 Nds 423,3 nm
Heures des mise à jour (En fonction des localisations reçues) FR : 08:08, 12:08, 14:08 et 18:08
UTC : 07:08, 11:08, 13:08 et 17:08




by Sail-World.com

  

Click on the FB Like link to post this story to your FB wall

http://www.sail-world.com/index.cfm?nid=40536

12:39 AM Fri 4 Jan 2008 GMT






Click here for printer friendly version
Click here to send us feedback or comments about this story.


News - USA and the World









Aldo Alessio Regatta - Three days of tight racing by Erik Simonson, Pressure-Drop.US,










Sailing Champions League - which is Europe's best sailing club? by Dan Ibsen & the Sail-World team, Copenhagen


Weta fun at the Wine & Roses Regatta by Bruce Fleming, Santa Barbara
















J/111 World Championships - The Winner is Shmokin Joe! by Stuart Johnstone, Cowes, Isle of Wight












2014 Detroit Cup - Morvan wins by Dobbs Davis, Detroit


















Emirates Team NZ: Frustrating Day 3 in Extreme Sailing Series, Cardiff
Extreme Sailing Series: Light winds help The Wave Muscat - Day 3
Extreme Sailing Series 2014 Act five - Absent without leave – the wind
IFDS Worlds 2014 - Images: Race day five
Herreshoff Classic Regatta 2014 - Images by Ingrid Abery
Youth Olympics - Gold to Argentinean and Chinese Techno 293 racers
Youth Olympics Games Nanjing - Double Youth Olympic Gold for Singapore
Sevenstar Round Britain and Ireland Race 2014 - Two Handers celebrate
Audi Melges 20 U.S. National Championship 2014 - Brazilian dance party
IFDS Disabled Sailing Worlds Day 5 - USA fighting for Rio 2016 Berths
J/111 World Championship 2014 - Day 4: Shmokin Joe consolidates lead
Anna Tunnicliffe: Alinghi on top - Extreme Sailing Series, Day 2
2014 IFDS World Championships - Breezy frustrations
2014 Detroit Cup - Down to the final four
Sevenstar Round Britain and Ireland Race - Every finisher's a winner
2014 49er, 49er FX, Nacra 17 U.S. National Championship - Day 2
J/24 US National Championship - Will Welles leaps into lead
J/111 World Championships - Day 3
Extreme Sailing Series Act 5 – Day 2
Light wind and a freak storm at Youth Olympic Sailing Competition
31st Audi Hamilton Island Race Week - Declared 'best ever'   
2014 IFDS World Championships - Aussies on fire   
2014 IFDS World Championships - Saturday’s racing images by Tim Wilkes   
2014 IFDS World Championships - Day 5 images by Jude Robertson   
2014 Audi Melges 20 U.S. National Champ - Day 3 images by Joy Dunigan   
Holt’s 25-year dream comes true with 505 Worlds Victor   
Emirates Team NZ: Collision puts an end to bid for a better day at ESS   
Extreme Sailing Series: Ben Ainslie Racing - mixed results on Day 2   
America's Cup: New brand and image partnership announced with SME   
Extreme Sailing: Tough and testing day on Cardiff Bay - Day 2 + Video   
2014 49er, 49er FX, Nacra 17 U.S. National Championship - Day 1   
2014 J/111 World Championship - Bigger breeze arrives on day 2!   
2014 Detroit Cup - Quarter-finalists determined   
2014 AWT Quatro Desert Showdown - Best Amatuer final ever!   
Audi Hamilton Island Race Week - Last day images by Andrea Francolini   
2014 Newport Bucket Regatta - Day 1 images by Ingrid Abery   
Anna Tunnicliffe: Alinghi in top three - Extreme Sailing Series, Day 1   
Audi Melges 20 U.S. National Championship - Tricky conditions on day 2   
Audi Hamilton Island Race Week: MC38s Images by Crosbie Lorimer   
2014 IFDS World Championship - Friday's racing images by Tim Wilkes   


For this week's complete news stories select    Last 7 Days
   Search All News
For last month's complete news stories select    Last 30 Days
   Archive News







Sail-World.com  


















Switch Default Region to:

Social Media

Asia

Australia

Canada

Europe

New Zealand

United Kingdom


http://www.sail-world.com/event_images/image/Twitter_logo_small.png http://www.sail-world.com/event_images/image/FaceBook-icon.png  http://www.sail-world.com/event_images/image/RSS-Icon.png

United States

Cruising Northern

Cruising Southern

MarineBusiness World

PowerBoat World

FishingBoating World

 

Contact

Commercial

News

Search

Contact Us

Advertisers Information

Submit news/events

Search Stories/Text

Feedback

Advertisers Directory

Newsletter Archive

Photo Gallery

 

Banner Advertising Details

Newsletter Subscribe

Video Gallery

Policies

 

 

 

Privacy Policy

 

 


Cookie Policy

 

 



This site and its contents are © Copyright TetraMedia and/or the original author, photographer etc. All Rights Reserved.  Photographs are copyright by law.  If you wish to use or buy a photograph contact the photographer directly.
XLXL WAS US
LocalAds   DE  ES  FR  IT